DW0931 Weather Reports


time (UTC)temp
C
wind
direction
speed
KPH
gust
KPH
rain 1hr
cm
rain 24hr
cm
rain mn
cm
humidity
%
barometer
mb
20260507160023 28 5 0.0 0.0 0.00 0.00 0.00 8 1011.1
20260507153907 27 5 0.0 0.0 0.00 0.00 0.00 8 1011.2
20260507152855 26 5 0.0 0.0 0.00 0.00 0.00 9 1011.2
20260507151857 25 5 0.0 0.0 0.00 0.00 0.00 10 1011.3
20260507151851 26 5 0.0 0.0 0.00 0.00 0.00 10 1011.2
20260507145851 25 5 0.0 0.0 0.00 0.00 0.00 11 1011.2
20260507145836 24 5 0.0 0.0 0.00 0.00 0.00 13 1011.2
20260507143812 23 5 0.0 0.0 0.00 0.00 0.00 13 1011.3
20260507142807 22 5 0.0 0.0 0.00 0.00 0.00 15 1011.4
20260507142803 23 5 0.0 0.0 0.00 0.00 0.00 14 1011.4
20260507140754 21 5 0.0 0.0 0.00 0.00 0.00 17 1011.4
20260507135754 21 5 0.0 0.0 0.00 0.00 0.00 18 1011.3
20260507134753 20 5 0.0 0.0 0.00 0.00 0.00 21 1011.1
20260507133746 18 5 0.0 0.0 0.00 0.00 0.00 23 1011.1
20260507132747 18 5 0.0 0.0 0.00 0.00 0.00 29 1011.2
20260507131738 18 5 0.0 0.0 0.00 0.00 0.00 28 1011.1
20260507130722 18 5 0.0 0.0 0.00 0.00 0.00 28 1011.0
20260507125715 18 5 0.0 0.0 0.00 0.00 0.00 28 1011.0
20260507124704 18 5 0.0 0.0 0.00 0.00 0.00 28 1011.0
20260507124655 18 5 0.0 0.0 0.00 0.00 0.00 28 1010.9
20260507122654 18 5 0.0 0.0 0.00 0.00 0.00 29 1010.8
20260507121652 18 5 0.0 0.0 0.00 0.00 0.00 29 1010.7
20260507120642 18 5 0.0 0.0 0.00 0.00 0.00 29 1010.8
20260507115624 18 5 0.0 0.0 0.00 0.00 0.00 28 1010.9
20260507114624 18 5 0.0 0.0 0.00 0.00 0.00 28 1011.0
20260507113621 19 5 0.0 0.0 0.00 0.00 0.00 27 1011.1
20260507112616 19 5 0.0 0.0 0.00 0.00 0.00 27 1011.2
20260507111554 19 5 0.0 0.0 0.00 0.00 0.00 27 1011.2
20260507111548 19 5 0.0 0.0 0.00 0.00 0.00 27 1011.1
20260507105538 18 5 0.0 0.0 0.00 0.00 0.00 28 1011.3
20260507104531 18 5 0.0 0.0 0.00 0.00 0.00 28 1011.3
20260507103623 18 5 0.0 0.0 0.00 0.00 0.00 29 1011.3
20260507101510 18 5 0.0 0.0 0.00 0.00 0.00 29 1011.7
20260507095502 18 5 0.0 0.0 0.00 0.00 0.00 28 1011.8
20260507094457 17 5 0.0 0.0 0.00 0.00 0.00 29 1011.8
20260507093442 17 5 0.0 0.0 0.00 0.00 0.00 29 1011.9
20260507092443 17 5 0.0 0.0 0.00 0.00 0.00 30 1011.9
20260507091436 17 5 0.0 0.0 0.00 0.00 0.00 30 1011.9
20260507085423 17 5 0.0 0.0 0.00 0.00 0.00 31 1012.2
20260507084412 17 5 0.0 0.0 0.00 0.00 0.00 31 1012.2
20260507083404 17 5 0.0 0.0 0.00 0.00 0.00 31 1012.3
20260507082456 17 5 0.0 0.0 0.00 0.00 0.00 32 1012.4
20260507080330 17 5 0.0 0.0 0.00 0.00 0.00 32 1012.3
20260507075310 17 5 0.0 0.0 0.00 0.00 0.00 32 1012.3
20260507074236 17 5 0.0 0.0 0.00 0.00 0.00 32 1012.3
20260507073200 17 5 0.0 0.0 0.00 0.00 0.00 31 1012.3
20260507073147 17 5 0.0 0.0 0.00 0.00 0.00 32 1012.4
20260507071141 17 5 0.0 0.0 0.00 0.00 0.00 32 1012.5
20260507070138 17 5 0.0 0.0 0.00 0.00 0.00 31 1012.5
20260507065138 17 5 0.0 0.0 0.00 0.00 0.00 31 1012.5
20260507064131 17 5 0.0 0.0 0.00 0.00 0.00 31 1012.5
20260507063133 18 5 0.0 0.0 0.00 0.00 0.00 31 1012.4
20260507062123 18 5 0.0 0.0 0.00 0.00 0.00 31 1012.4
20260507061100 18 5 0.0 0.0 0.00 0.00 0.00 30 1012.5
20260507060056 18 5 0.0 0.0 0.00 0.00 0.00 30 1012.4
20260507055053 18 5 0.0 0.0 0.00 0.00 0.00 29 1012.5
20260507055049 18 5 0.0 0.0 0.00 0.00 0.00 30 1012.4
20260507053049 19 5 0.0 0.0 0.00 0.00 0.00 29 1012.4
20260507053045 19 5 0.0 0.0 0.00 0.00 0.00 28 1012.4
20260507051023 20 5 0.0 0.0 0.00 0.00 0.00 27 1012.4
20260507051014 20 5 0.0 0.0 0.00 0.00 0.00 26 1012.4
20260507045003 20 5 0.0 0.0 0.00 0.00 0.00 26 1012.4
20260507044000 20 5 0.0 0.0 0.00 0.00 0.00 26 1012.3
20260507042958 21 5 0.0 0.0 0.00 0.00 0.00 25 1011.9
20260507042954 20 5 0.0 0.0 0.00 0.00 0.00 25 1012.2
20260507040945 21 5 0.0 0.0 0.00 0.00 0.00 24 1011.8
20260507035931 22 5 0.0 0.0 0.00 0.00 0.00 24 1011.8
20260507034923 22 5 0.0 0.0 0.00 0.00 0.00 23 1011.6
20260507033931 23 5 0.0 0.0 0.00 0.00 0.00 22 1011.6
20260507032913 23 5 0.0 0.0 0.00 0.00 0.00 23 1011.5
20260507032004 24 5 0.0 0.0 0.00 0.00 0.00 22 1011.2
20260507025852 24 5 0.0 0.0 0.00 0.00 0.00 21 1010.9
20260507024858 25 5 0.0 0.0 0.00 0.00 0.00 20 1010.8
20260507024854 25 5 0.0 0.0 0.00 0.00 0.00 20 1010.9
20260507022847 25 5 0.0 0.0 0.00 0.00 0.00 19 1010.6
20260507021849 25 5 0.0 0.0 0.00 0.00 0.00 20 1010.5
20260507021843 25 5 0.0 0.0 0.00 0.00 0.00 19 1010.6
20260507015841 26 5 0.0 0.0 0.00 0.00 0.00 19 1010.5
20260507014821 26 5 0.0 0.0 0.00 0.00 0.00 19 1010.5
20260507013807 26 5 0.0 0.0 0.00 0.00 0.00 18 1010.3
20260507012749 26 5 0.0 0.0 0.00 0.00 0.00 18 1010.2
20260507011749 26 5 0.0 0.0 0.00 0.00 0.00 18 1010.2
20260507010749 26 5 0.0 0.0 0.00 0.00 0.00 18 1010.1
20260507004747 27 5 0.0 0.0 0.00 0.00 0.00 17 1010.0
20260507003745 28 5 0.0 0.0 0.00 0.00 0.00 16 1010.1
20260507003732 28 5 0.0 0.0 0.00 0.00 0.00 16 1010.1
20260507001731 29 5 0.0 0.0 0.00 0.00 0.00 15 1010.1
20260507000728 29 5 0.0 0.0 0.00 0.00 0.00 15 1010.0
20260506235714 30 5 0.0 0.0 0.00 0.00 0.00 15 1010.1
20260506234713 30 5 0.0 0.0 0.00 0.00 0.00 14 1010.1
20260506233713 30 5 0.0 0.0 0.00 0.00 0.00 14 1010.2
20260506232651 31 5 0.0 0.0 0.00 0.00 0.00 14 1010.3
20260506231649 31 5 0.0 0.0 0.00 0.00 0.00 14 1010.2
20260506230649 31 5 0.0 0.0 0.00 0.00 0.00 14 1010.5
20260506225644 31 5 0.0 0.0 0.00 0.00 0.00 14 1010.7
20260506224643 31 5 0.0 0.0 0.00 0.00 0.00 14 1010.7
20260506223634 31 5 0.0 0.0 0.00 0.00 0.00 14 1010.9
20260506222629 31 5 0.0 0.0 0.00 0.00 0.00 15 1011.0
20260506221627 30 5 0.0 0.0 0.00 0.00 0.00 14 1011.2
20260506220613 30 5 0.0 0.0 0.00 0.00 0.00 15 1011.3
20260506215547 30 5 0.0 0.0 0.00 0.00 0.00 15 1011.4
20260506214544 30 5 0.0 0.0 0.00 0.00 0.00 16 1011.6
20260506213544 30 5 0.0 0.0 0.00 0.00 0.00 16 1011.7
20260506212542 29 5 0.0 0.0 0.00 0.00 0.00 16 1011.9
20260506211544 28 5 0.0 0.0 0.00 0.00 0.00 17 1012.0
20260506210542 28 5 0.0 0.0 0.00 0.00 0.00 17 1012.4
20260506205543 29 5 0.0 0.0 0.00 0.00 0.00 17 1012.4
20260506204542 28 5 0.0 0.0 0.00 0.00 0.00 16 1012.6
20260506203537 28 5 0.0 0.0 0.00 0.00 0.00 16 1012.7
20260506202518 29 5 0.0 0.0 0.00 0.00 0.00 16 1012.7
20260506201505 29 5 0.0 0.0 0.00 0.00 0.00 18 1013.0
20260506200454 28 5 0.0 0.0 0.00 0.00 0.00 17 1013.0
20260506195454 28 5 0.0 0.0 0.00 0.00 0.00 19 1013.1
20260506194451 28 5 0.0 0.0 0.00 0.00 0.00 17 1013.2
20260506193451 28 5 0.0 0.0 0.00 0.00 0.00 18 1013.5
20260506192444 28 5 0.0 0.0 0.00 0.00 0.00 18 1013.5
20260506191532 27 5 0.0 0.0 0.00 0.00 0.00 19 1013.5
20260506185458 26 5 0.0 0.0 0.00 0.00 0.00 21 1013.7
20260506183350 25 5 0.0 0.0 0.00 0.00 0.00 22 1014.0
20260506182351 25 5 0.0 0.0 0.00 0.00 0.00 22 1014.1
20260506181351 25 5 0.0 0.0 0.00 0.00 0.00 22 1014.1
20260506180344 25 5 0.0 0.0 0.00 0.00 0.00 23 1014.3
20260506175345 25 5 0.0 0.0 0.00 0.00 0.00 24 1014.4
20260506174331 24 5 0.0 0.0 0.00 0.00 0.00 24 1014.5
20260506173327 24 5 0.0 0.0 0.00 0.00 0.00 24 1014.5
20260506173319 23 5 0.0 0.0 0.00 0.00 0.00 26 1014.5
20260506171303 23 5 0.0 0.0 0.00 0.00 0.00 26 1014.5
20260506170259 23 5 0.0 0.0 0.00 0.00 0.00 27 1014.5
20260506165255 22 5 0.0 0.0 0.00 0.00 0.00 27 1014.3
20260506164251 22 5 0.0 0.0 0.00 0.00 0.00 28 1014.5
20260506163244 22 5 0.0 0.0 0.00 0.00 0.00 29 1014.4
20260506162245 21 5 0.0 0.0 0.00 0.00 0.00 30 1014.4
20260506161236 21 5 0.0 0.0 0.00 0.00 0.00 29 1014.2